NOAA NWS Hourly Roundups by Site

Regional Weather Roundup for Omaha, NE

To Select Another Site Choose from List

Select Site:  

000
ASUS43 KOAX 081110
RWRNE

WEATHER ROUNDUP FOR NEBRASKA
NATIONAL WEATHER SERVICE OMAHA NE
600 AM CDT WED JUL 08 2020

NOTES: SATELLITE DATA IS BEING USED TO AUGMENT CLOUD COVER ABOVE
       12000 FEET.
       "FAIR" INDICATES FEW OR NO CLOUDS BELOW 12,000 FEET WITH NO
       SIGNIFICANT WEATHER AND/OR OBSTRUCTIONS TO VISIBILITY.


NEZ001>004-019>022-054>056-081200-
NEBRASKA PANHANDLE

CITY           SKY/WX    TMP DP  RH WIND       PRES   REMARKS
SCOTTSBLUFF    CLEAR     60  53  77 W3        29.87R
ALLIANCE       CLEAR     61  50  67 S9        29.84S
CHADRON        CLEAR     63  52  67 W5        29.83R
GORDON         FAIR      66  51  58 SW6       29.82S
KIMBALL        CLEAR     62  46  56 W12       29.93S
SIDNEY         CLEAR     58  51  78 CALM      29.88R
$$

NEZ057>060-069>072-079>082-081200-
SOUTHWEST NEBRASKA

CITY           SKY/WX    TMP DP  RH WIND       PRES   REMARKS
NORTH PLATTE   MOCLDY    75  61  61 SE9       29.84F
IMPERIAL       MOCLDY    70  56  61 MISG      29.82F
LEXINGTON      MOCLDY    73  64  74 S12       29.87R
MCCOOK         MOCLDY    72  62  71 SW12G21   29.85R
OGALLALA       MOCLDY    75  56  51 CALM      29.83F
$$

NEZ005>010-023>029-035>040-094-081200-
NORTH CENTRAL NEBRASKA

CITY           SKY/WX    TMP DP  RH WIND       PRES   REMARKS
VALENTINE      MOCLDY    80  59  48 S14       29.76S
AINSWORTH      PTCLDY    73  64  74 S15       29.79S
BROKEN BOW     CLEAR     69  64  84 S6        29.87R
O`NEILL        PTCLDY    75  64  68 S13       29.83S
ORD            CLEAR     72  64  76 S10       29.83R
THEDFORD       MOCLDY    74  62  65 S13       29.83S
$$

NEZ041-046>049-061>064-073>077-083>087-081200-
SOUTH CENTRAL NEBRASKA

CITY           SKY/WX    TMP DP  RH WIND       PRES   REMARKS
GRAND ISLAND   CLEAR     72  64  76 S9        29.87R
AURORA         CLEAR     72  67  85 S9        29.88R
HASTINGS       CLEAR     71  64  78 S6        29.90R
HEBRON         CLEAR     71  67  85 S7        29.88S
HOLDREGE       PTCLDY    71  65  83 S10       29.87R
KEARNEY        CLEAR     71  32  23 S14       29.87F
YORK             N/A     70  70 100 S8        29.87S
$$

NEZ011>018-030>034-042>045-081200-
NORTHEAST NEBRASKA

CITY           SKY/WX    TMP DP  RH WIND       PRES   REMARKS
NORFOLK        CLEAR     73  66  78 S10       29.83R
ALBION         CLEAR     71  67  89 S7        29.84S
BLAIR          CLEAR     73  70  88 S7        29.87R
COLUMBUS       CLEAR     75  67  76 S13       29.85S
FREMONT        CLEAR     76  71  83 S6        29.86R
TEKAMAH        CLEAR     69  67  93 S6        29.84R
WAYNE          CLEAR     72  69  89 S8        29.83S
$$

NEZ050>053-065>068-078-088>093-081200-
SOUTHEAST NEBRASKA

CITY           SKY/WX    TMP DP  RH WIND       PRES   REMARKS
LINCOLN        CLEAR     70  66  87 S8        29.87R
OMAHA EPPLEY   CLEAR     75  71  87 SE9       29.85S
BEATRICE       CLEAR     73  67  83 S5        29.89R
FALLS CITY     CLEAR     74  69  85 S5        29.88R
NEBRASKA CITY  CLEAR     73  73  99 S7        29.88S
PLATTSMOUTH    CLEAR     74  70  86 S8        29.88R
$$

NEZ044-045-051>053-067-081200-
OMAHA AREA

CITY           SKY/WX    TMP DP  RH WIND       PRES   REMARKS
OMAHA EPPLEY   CLEAR     75  71  87 SE9       29.85S
BLAIR          CLEAR     73  70  88 S7        29.87R
FREMONT        CLEAR     76  71  83 S6        29.86R
MILLARD        CLEAR     77  69  77 S5        29.86S
OFFUTT AFB     CLEAR     71  69  93 CALM      29.86R
PLATTSMOUTH    CLEAR     74  70  86 S8        29.88R
WAHOO          FAIR      71  71 100 S3        29.86R
$$



 

View Past Reports for Omaha, NE.

Products Courtesy of NOAA-NWS
NWS Information Parsing Script by Ken True at Saratoga Weather - Script by SE Lincoln Weather.